Location: Newark
(43.6486°N, 79.3853°W)
Time: 12:56:20
(UTC+00:00)

STARLINK-1319 - Visible Passes

Search period start: 06 August 2020 00:00
Search period end: 16 August 2020 00:00
Orbit: 549 x 550 km, 53.0° (Epoch: 06 August)

Date Brightness Start Highest point End Pass type
(mag) Time Alt. Az. Time Alt. Az. Time Alt. Az.
06 Aug 3.9 08:52:41 20° SW 08:55:22 59° SE 08:59:28 10° ENE visible
07 Aug 6.2 07:11:46 12° ESE 07:11:46 12° ESE 07:12:41 10° E visible
07 Aug 3.6 08:47:25 24° SW 08:49:48 79° SE 08:53:57 10° ENE visible
08 Aug 6.0 07:06:24 15° ESE 07:06:24 15° ESE 07:07:51 10° E visible
08 Aug 3.6 08:42:02 27° WSW 08:44:12 81° NW 08:48:22 10° NE visible
09 Aug 5.8 07:00:55 18° E 07:00:55 18° E 07:02:36 10° ENE visible
09 Aug 3.8 08:36:33 28° WSW 08:38:33 64° NNW 08:42:41 10° NE visible
10 Aug 5.7 06:55:20 21° E 06:55:20 21° E 06:57:07 10° ENE visible
10 Aug 4.2 08:30:58 28° W 08:32:52 51° NNW 08:36:55 10° NE visible
11 Aug 5.6 06:49:39 23° E 06:49:39 23° E 06:51:28 10° ENE visible
11 Aug 4.5 08:25:16 26° W 08:27:08 42° NNW 08:31:06 10° NE visible
12 Aug 5.6 06:43:53 24° ENE 06:43:53 24° ENE 06:45:42 10° ENE visible
12 Aug 4.8 08:19:30 23° WNW 08:21:21 35° NNW 08:25:12 10° NE visible
13 Aug 5.6 06:38:02 25° ENE 06:38:02 25° ENE 06:39:49 10° ENE visible
13 Aug 5.1 08:13:38 21° WNW 08:15:32 31° NNW 08:19:15 10° NE visible
14 Aug 5.7 06:32:05 24° NE 06:32:05 24° NE 06:33:50 10° NE visible
14 Aug 5.3 08:07:42 19° WNW 08:09:39 28° NNW 08:13:15 10° NE visible
14 Aug 5.8 09:46:51 10° NW 09:50:11 23° N 09:53:31 10° ENE visible
15 Aug 5.8 06:26:05 23° NE 06:26:05 23° NE 06:27:46 10° NE visible
15 Aug 5.5 08:01:41 17° NW 08:03:44 25° NNW 08:07:13 10° NE visible
15 Aug 5.8 09:40:52 10° NW 09:44:16 24° N 09:47:41 10° ENE visible
